Location: Bottens
(46.6171°N, 6.6605°E)
Time: 20:38:30
(UTC+00:00)

Cosmos 1763 Rocket - Pass Details

Date: 20 June 2021
Orbit: 732 x 781 km, 74.0° (Epoch: 23 July)

Event Time Altitude Azimuth Distance (km) Brightness Sun altitude
Exits shadow 01:15:44 20° 243° (WSW) 1,686 4.8 -16.3°
Maximum altitude 01:18:47 37° 300° (WNW) 1,136 4.4 -16.1°
Drops below altitude 10° 01:23:33 10° 8° (N) 2,275 7.1 -15.8°
Sets 01:26:06 0° 17° (NNE) 3,212 8.5 -15.6°
